CW3699 Weather Reports


Display with metric or nautical units.
time (UTC)temp
F
wind
direction
speed
MPH
gust
MPH
rain 1hr
in
rain 24hr
in
rain mn
in
humidity
%
barometer
mb
20260903182413 73 54 0.0 2.0 0.00 0.00 0.00 77 1016.2
20260903181912 72 340 0.0 2.0 0.00 0.00 0.00 77 1016.0
20260903181412 72 32 0.0 1.0 0.00 0.00 0.00 76 1016.1
20260903180913 72 66 0.0 2.0 0.00 0.00 0.00 76 1016.1
20260903180413 72 66 0.0 1.0 0.00 0.00 0.00 75 1016.0
20260903175913 72 79 0.0 2.0 0.00 0.00 0.00 73 1016.1
20260903175413 72 82 0.0 1.0 0.00 0.00 0.00 72 1016.1
20260903174913 72 39 0.0 1.0 0.00 0.00 0.00 72 1015.9
20260903174413 72 51 0.0 1.0 0.00 0.00 0.00 70 1015.8
20260903173913 72 29 0.0 1.0 0.00 0.00 0.00 72 1015.7
20260903173413 72 62 0.0 1.0 0.00 0.00 0.00 69 1015.7
20260903172913 72 83 0.0 1.0 0.00 0.00 0.00 70 1015.7
20260903172412 72 51 0.0 1.0 0.00 0.00 0.00 69 1015.6
20260903171913 72 57 0.0 2.0 0.00 0.00 0.00 69 1015.5
20260903170413 72 115 0.0 1.0 0.00 0.00 0.00 71 1015.2
20260903165912 73 55 0.0 2.0 0.00 0.00 0.00 70 1015.2
20260903165413 72 26 0.0 2.0 0.00 0.00 0.00 69 1015.2
20260903164912 72 22 0.0 2.0 0.00 0.00 0.00 73 1015.2
20260903164413 72 355 0.0 2.0 0.00 0.00 0.00 71 1015.3
20260903163913 71 331 0.0 2.0 0.00 0.00 0.00 73 1015.3
20260903163412 71 44 0.0 2.0 0.00 0.00 0.00 73 1015.3
20260903162913 71 32 0.0 1.0 0.00 0.00 0.00 74 1015.4
20260903162412 70 34 0.0 2.0 0.00 0.00 0.00 73 1015.4
20260903161912 70 77 0.0 2.0 0.00 0.00 0.00 75 1015.4
20260903161413 70 35 1.0 2.0 0.00 0.00 0.00 75 1015.5
20260903160912 69 89 0.0 1.0 0.00 0.00 0.00 75 1015.4
20260903160412 69 110 0.0 1.0 0.00 0.00 0.00 76 1015.6
20260903155913 69 95 0.0 1.0 0.00 0.00 0.00 77 1015.6
20260903155412 69 78 0.0 2.0 0.00 0.00 0.00 76 1015.6
20260903154912 69 32 0.0 1.0 0.00 0.00 0.00 75 1015.7
20260903154413 69 83 0.0 1.0 0.00 0.00 0.00 76 1015.6
20260903153412 69 37 0.0 1.0 0.00 0.00 0.00 75 1015.8
20260903152913 69 65 0.0 2.0 0.00 0.00 0.00 75 1015.6
20260903152412 69 49 0.0 1.0 0.00 0.00 0.00 75 1015.7
20260903151914 68 51 0.0 1.0 0.00 0.00 0.00 76 1015.8
20260903150913 67 96 0.0 1.0 0.00 0.00 0.00 79 1015.7
20260903145412 66 67 0.0 2.0 0.00 0.00 0.00 82 1015.7
20260903144913 66 6 0.0 2.0 0.00 0.00 0.00 82 1015.6
20260903143912 65 67 0.0 1.0 0.00 0.00 0.00 84 1015.6
20260903143412 65 84 0.0 2.0 0.00 0.00 0.00 85 1015.6
20260903142913 65 74 0.0 1.0 0.00 0.01 0.00 85 1015.7
20260903141912 65 42 1.0 2.0 0.00 0.01 0.00 91 1015.8
20260903141412 64 19 1.0 2.0 0.00 0.01 0.00 92 1015.7
20260903140912 64 15 1.0 2.0 0.00 0.02 0.00 93 1015.8
20260903140412 64 340 1.0 2.0 0.00 0.02 0.00 95 1015.8
20260903135912 64 88 1.0 2.0 0.00 0.02 0.00 95 1015.7
20260903135412 64 107 1.0 2.0 0.00 0.02 0.00 96 1015.6
20260903134913 63 88 1.0 2.0 0.00 0.02 0.00 97 1015.5
20260903134412 63 37 1.0 2.0 0.00 0.02 0.00 97 1015.4
20260903133913 63 127 1.0 2.0 0.00 0.02 0.00 97 1015.4
20260903133412 63 216 1.0 2.0 0.00 0.02 0.00 97 1015.3
20260903132912 63 15 1.0 2.0 0.00 0.02 0.00 97 1015.4
20260903132413 62 168 1.0 2.0 0.00 0.02 0.00 97 1015.4
20260903131912 62 115 1.0 2.0 0.00 0.02 0.00 98 1015.6
20260903131412 62 95 0.0 1.0 0.00 0.02 0.00 98 1015.6
20260903130912 62 65 0.0 1.0 0.00 0.02 0.00 97 1015.6
20260903130412 62 95 0.0 2.0 0.00 0.02 0.00 97 1015.6
20260903125912 62 92 0.0 1.0 0.00 0.02 0.00 98 1015.7
20260903125412 61 69 0.0 1.0 0.00 0.02 0.00 98 1015.5
20260903124913 61 60 0.0 1.0 0.00 0.02 0.00 97 1015.4
20260903124412 61 116 0.0 1.0 0.00 0.02 0.00 98 1015.5
20260903123912 61 97 0.0 1.0 0.00 0.02 0.00 97 1015.5
20260903122413 60 135 1.0 2.0 0.00 0.02 0.00 97 1015.7
20260903121912 60 134 1.0 2.0 0.00 0.02 0.00 97 1015.7
20260903121412 59 148 0.0 2.0 0.00 0.02 0.00 97 1015.7
20260903120412 59 149 0.0 2.0 0.00 0.02 0.00 97 1015.4
20260903115912 59 139 0.0 2.0 0.00 0.02 0.00 97 1015.3
20260903114911 59 156 0.0 2.0 0.00 0.02 0.00 97 1015.3
20260903114412 59 152 0.0 2.0 0.00 0.02 0.00 97 1015.4
20260903113912 59 168 1.0 2.0 0.00 0.02 0.00 97 1015.3
20260903112912 59 142 0.0 2.0 0.00 0.02 0.00 96 1015.2
20260903112427 59 152 0.0 2.0 0.00 0.02 0.00 96 1015.2
20260903111912 59 152 0.0 1.0 0.00 0.02 0.00 96 1015.1
20260903110912 59 163 0.0 2.0 0.00 0.02 0.00 96 1015.0
20260903110412 59 149 0.0 1.0 0.00 0.02 0.00 96 1015.0
20260903105912 59 147 0.0 1.0 0.00 0.02 0.00 96 1015.0
20260903105412 60 149 0.0 1.0 0.00 0.02 0.00 96 1014.9
20260903104913 60 157 0.0 1.0 0.00 0.02 0.00 96 1015.0
20260903104412 60 140 0.0 1.0 0.00 0.02 0.00 96 1015.1
20260903103912 60 130 0.0 1.0 0.00 0.02 0.00 96 1015.0
20260903103413 60 166 0.0 1.0 0.00 0.02 0.00 96 1015.0
20260903102912 60 105 0.0 1.0 0.00 0.02 0.00 96 1015.1
20260903102412 60 135 0.0 1.0 0.00 0.02 0.00 96 1015.0
20260903101912 60 163 0.0 1.0 0.00 0.02 0.00 96 1014.9
20260903100911 61 144 0.0 1.0 0.00 0.02 0.00 96 1015.0
20260903100412 61 150 0.0 1.0 0.00 0.02 0.00 97 1015.1
20260903095413 61 96 0.0 1.0 0.00 0.02 0.00 96 1015.1
20260903094912 61 119 0.0 1.0 0.00 0.02 0.00 96 1015.0
20260903094427 61 156 0.0 1.0 0.00 0.02 0.00 96 1015.0
20260903093912 61 154 0.0 1.0 0.00 0.02 0.00 96 1015.0
20260903093414 61 152 0.0 1.0 0.00 0.02 0.00 96 1015.1
20260903092912 61 146 0.0 1.0 0.00 0.02 0.00 96 1015.1
20260903092412 61 121 0.0 1.0 0.00 0.02 0.00 96 1015.0
20260903091413 61 145 0.0 1.0 0.00 0.02 0.00 96 1015.0
20260903090412 61 139 0.0 1.0 0.00 0.02 0.00 97 1015.0
20260903085913 61 136 0.0 1.0 0.00 0.02 0.00 97 1015.1
20260903085413 61 141 0.0 1.0 0.00 0.02 0.00 97 1015.0
20260903084414 61 164 0.0 1.0 0.00 0.02 0.00 97 1015.0
20260903083912 61 138 0.0 1.0 0.00 0.02 0.00 96 1015.0
20260903083413 61 156 0.0 1.0 0.00 0.02 0.00 96 1014.9
20260903082412 61 149 0.0 1.0 0.00 0.02 0.00 96 1014.8
20260903081412 61 151 0.0 1.0 0.00 0.02 0.00 96 1014.8
20260903080913 62 150 0.0 1.0 0.00 0.02 0.00 96 1014.9
20260903080412 62 162 0.0 1.0 0.00 0.02 0.00 96 1014.8
20260903075912 62 135 0.0 1.0 0.00 0.02 0.00 96 1014.7
20260903075412 62 142 0.0 1.0 0.00 0.02 0.00 96 1014.7
20260903074912 62 144 1.0 1.0 0.00 0.02 0.00 96 1014.8
20260903074412 62 129 0.0 1.0 0.00 0.02 0.00 96 1014.7
20260903073912 62 142 0.0 1.0 0.00 0.02 0.00 97 1014.7
20260903073411 62 135 0.0 1.0 0.00 0.02 0.00 97 1014.6
20260903072912 62 142 0.0 1.0 0.00 0.02 0.00 97 1014.8
20260903071912 62 129 0.0 1.0 0.00 0.02 0.00 96 1014.6
20260903071413 62 149 0.0 1.0 0.00 0.02 0.00 96 1014.6
20260903070919 62 110 0.0 1.0 0.00 0.02 0.00 96 1014.5
20260903070412 62 142 0.0 2.0 0.00 0.02 0.00 96 1014.6
20260903065912 62 152 0.0 1.0 0.00 0.02 0.00 96 1014.5
20260903064412 62 123 0.0 1.0 0.00 0.02 0.00 97 1014.4
20260903063926 62 154 0.0 1.0 0.00 0.02 0.00 96 1014.4
20260903062412 62 121 0.0 1.0 0.00 0.02 0.00 96 1014.2
20260903061928 62 133 0.0 1.0 0.00 0.02 0.00 96 1014.3
20260903061411 62 142 0.0 1.0 0.00 0.02 0.00 96 1014.2
20260903060912 62 141 0.0 1.0 0.00 0.02 0.00 96 1014.1
20260903060412 62 151 0.0 2.0 0.00 0.02 0.00 96 1014.1
20260903055912 62 145 0.0 1.0 0.00 0.02 0.00 96 1014.1
20260903055412 62 133 0.0 1.0 0.00 0.02 0.00 96 1014.1
20260903054912 62 137 0.0 2.0 0.00 0.02 0.00 96 1014.0
20260903054412 62 143 0.0 2.0 0.00 0.02 0.00 96 1014.0
20260903053912 62 148 0.0 1.0 0.00 0.02 0.00 96 1014.0
20260903053411 61 146 0.0 1.0 0.00 0.02 0.00 96 1014.0
20260903052913 62 155 0.0 1.0 0.00 0.02 0.00 96 1013.9
20260903052412 62 201 0.0 1.0 0.00 0.02 0.00 95 1013.9
20260903051927 62 164 0.0 1.0 0.00 0.02 0.00 95 1013.9
20260903051412 62 167 0.0 1.0 0.00 0.02 0.00 95 1013.9
20260903050915 62 151 0.0 1.0 0.00 0.02 0.00 95 1013.9
20260903045412 62 159 0.0 1.0 0.00 0.02 0.00 95 1014.0
20260903044412 62 150 0.0 1.0 0.00 0.02 0.00 95 1013.9
20260903043412 62 151 0.0 1.0 0.00 0.02 0.00 95 1013.9
20260903042912 62 132 0.0 1.0 0.00 0.02 0.00 95 1014.0
20260903042412 62 108 0.0 1.0 0.00 0.02 0.00 95 1013.9
20260903041911 62 127 0.0 1.0 0.00 0.02 0.00 95 1013.8
20260903041411 63 126 0.0 1.0 0.00 0.02 0.00 95 1013.8
20260903040914 63 185 0.0 1.0 0.00 0.02 0.00 95 1013.8
20260903040412 63 149 0.0 1.0 0.00 0.02 0.00 94 1013.7
20260903035912 63 149 0.0 1.0 0.00 0.02 0.02 95 1013.7
20260903035412 63 148 0.0 1.0 0.00 0.02 0.02 95 1013.8
20260903034911 63 128 0.0 1.0 0.00 0.02 0.02 95 1013.9
20260903033912 63 158 0.0 1.0 0.00 0.02 0.02 94 1013.9
20260903032912 64 155 0.0 1.0 0.00 0.02 0.02 94 1013.7
20260903032412 64 135 0.0 1.0 0.00 0.02 0.02 94 1013.8
20260903030912 64 143 0.0 1.0 0.00 0.02 0.02 94 1013.8
20260903030426 64 139 0.0 1.0 0.00 0.02 0.02 94 1013.8
20260903025912 64 128 0.0 1.0 0.00 0.02 0.02 94 1013.8
20260903025412 64 150 0.0 1.0 0.00 0.02 0.02 94 1013.8
20260903024912 64 147 0.0 1.0 0.00 0.02 0.02 93 1013.8
20260903024413 64 135 0.0 1.0 0.00 0.02 0.02 93 1013.8
20260903023412 65 127 0.0 1.0 0.00 0.02 0.02 93 1013.7
20260903022913 65 118 0.0 1.0 0.00 0.02 0.02 93 1013.8
20260903022412 65 121 0.0 1.0 0.00 0.02 0.02 92 1013.8
20260903021912 65 106 0.0 1.0 0.00 0.02 0.02 92 1013.8
20260903021412 65 107 0.0 1.0 0.00 0.02 0.02 92 1013.7
20260903020911 65 107 0.0 1.0 0.00 0.02 0.02 92 1013.7
20260903015412 66 149 0.0 1.0 0.00 0.02 0.02 92 1013.6
20260903014912 66 125 0.0 2.0 0.00 0.02 0.02 91 1013.5
20260903014411 66 128 0.0 1.0 0.00 0.02 0.02 91 1013.5
20260903013911 66 125 0.0 1.0 0.00 0.02 0.02 91 1013.5
20260903013411 66 154 0.0 1.0 0.00 0.02 0.02 91 1013.5
20260903012927 66 50 1.0 1.0 0.00 0.02 0.02 91 1013.7
20260903012412 66 124 0.0 2.0 0.00 0.02 0.02 91 1013.7
20260903004415 68 85 0.0 1.0 0.00 0.02 0.02 88 1013.1
20260903003428 69 98 0.0 1.0 0.00 0.02 0.02 87 1012.9
20260903002915 69 138 0.0 1.0 0.00 0.02 0.02 88 1012.9
20260903002410 69 134 0.0 1.0 0.00 0.02 0.02 87 1012.8
20260903001909 69 109 0.0 1.0 0.00 0.02 0.02 87 1012.8
20260903000910 69 135 0.0 2.0 0.00 0.02 0.02 87 1012.8
20260903000410 69 135 0.0 2.0 0.00 0.02 0.02 87 1012.9
20260902235410 70 171 0.0 3.0 0.00 0.02 0.02 86 1012.8
20260902234909 70 144 0.0 2.0 0.00 0.02 0.02 85 1012.7
20260902234415 70 158 0.0 2.0 0.00 0.02 0.02 85 1012.8
20260902233910 70 143 0.0 2.0 0.00 0.02 0.02 85 1012.7
20260902233410 70 133 0.0 2.0 0.00 0.02 0.02 84 1012.8
20260902232915 71 171 1.0 2.0 0.00 0.02 0.02 84 1012.7
20260902232409 71 182 1.0 2.0 0.00 0.02 0.02 84 1012.8
20260902231909 71 134 0.0 2.0 0.00 0.02 0.02 84 1012.8
20260902231417 71 127 0.0 2.0 0.00 0.02 0.02 83 1012.7
20260902230908 71 152 0.0 2.0 0.00 0.02 0.02 82 1012.8
20260902230408 71 145 1.0 2.0 0.00 0.02 0.02 82 1012.8
20260902225425 72 119 0.0 2.0 0.00 0.02 0.02 82 1012.8
20260902224910 72 164 0.0 2.0 0.00 0.02 0.02 82 1012.8
20260902224410 72 165 1.0 2.0 0.00 0.02 0.02 82 1012.7
20260902223910 72 122 1.0 2.0 0.00 0.02 0.02 81 1012.6
20260902223409 72 57 1.0 2.0 0.00 0.02 0.02 82 1012.6
20260902222916 72 94 0.0 2.0 0.00 0.02 0.02 81 1012.6
20260902222410 72 135 0.0 2.0 0.00 0.02 0.02 81 1012.6
20260902221910 72 141 0.0 1.0 0.00 0.02 0.02 82 1012.6
20260902221408 73 141 0.0 2.0 0.00 0.02 0.02 81 1012.6
20260902220909 73 278 0.0 1.0 0.00 0.02 0.02 81 1012.7
20260902220410 73 148 0.0 2.0 0.00 0.02 0.02 80 1012.7
20260902215916 73 128 0.0 1.0 0.00 0.02 0.02 80 1012.6
20260902215409 74 30 0.0 1.0 0.00 0.02 0.02 79 1012.7
20260902214909 74 77 0.0 1.0 0.00 0.02 0.02 78 1012.7
20260902214409 74 57 0.0 1.0 0.00 0.02 0.02 77 1012.8
20260902213908 74 137 0.0 1.0 0.00 0.02 0.02 76 1012.7
20260902213409 74 70 0.0 2.0 0.00 0.02 0.02 76 1012.7
20260902212915 74 11 0.0 2.0 0.00 0.02 0.02 77 1012.7
20260902212409 75 13 1.0 2.0 0.00 0.02 0.02 76 1012.6
20260902211910 75 26 1.0 2.0 0.00 0.02 0.02 76 1012.7
20260902211415 75 0 0.0 2.0 0.00 0.02 0.02 76 1012.7
20260902210909 75 351 0.0 2.0 0.00 0.02 0.02 76 1012.7
20260902210409 75 41 0.0 1.0 0.00 0.02 0.02 75 1012.7
20260902205915 76 76 0.0 2.0 0.00 0.02 0.02 75 1012.7
20260902205410 76 136 0.0 1.0 0.00 0.02 0.02 74 1012.6
20260902204909 76 35 0.0 2.0 0.00 0.02 0.02 74 1012.6
20260902204415 76 2 1.0 2.0 0.00 0.02 0.02 75 1012.6
20260902203909 77 358 1.0 2.0 0.00 0.02 0.02 73 1012.7
20260902203409 77 20 1.0 3.0 0.00 0.02 0.02 73 1012.8
20260902202909 78 16 1.0 3.0 0.00 0.02 0.02 72 1012.8
20260902202410 78 8 0.0 2.0 0.00 0.02 0.02 73 1013.0
20260902201910 77 4 0.0 1.0 0.00 0.02 0.02 73 1013.1
20260902201410 78 11 0.0 1.0 0.00 0.02 0.02 73 1013.1
20260902200409 78 12 1.0 3.0 0.00 0.02 0.02 72 1013.1
20260902195909 78 12 1.0 2.0 0.00 0.02 0.02 71 1013.2
20260902195410 78 18 0.0 2.0 0.00 0.02 0.02 73 1013.4
20260902194909 78 30 0.0 2.0 0.00 0.02 0.02 74 1013.4
20260902194409 78 12 0.0 2.0 0.00 0.02 0.02 73 1013.4
20260902193910 78 100 0.0 2.0 0.00 0.02 0.02 75 1013.6
20260902193408 78 59 0.0 1.0 0.00 0.02 0.02 73 1013.7
20260902192909 78 75 0.0 2.0 0.00 0.02 0.02 75 1013.8
20260902192409 78 69 1.0 3.0 0.00 0.02 0.02 76 1013.8
20260902191910 78 246 0.0 2.0 0.00 0.02 0.02 74 1013.7
20260902191409 78 33 0.0 3.0 0.00 0.02 0.02 75 1013.8
20260902190909 78 59 0.0 2.0 0.00 0.02 0.02 75 1013.9
20260902190410 77 165 1.0 2.0 0.00 0.02 0.02 75 1013.9
20260902185409 77 253 0.0 2.0 0.00 0.02 0.02 75 1013.7
20260902184409 76 123 0.0 2.0 0.00 0.02 0.02 76 1013.6
20260902183909 76 115 0.0 2.0 0.00 0.02 0.02 76 1013.6
20260902183409 76 32 0.0 2.0 0.00 0.02 0.02 77 1013.7
20260902182909 76 54 0.0 2.0 0.00 0.02 0.02 77 1013.7